Simultaneous Nadir Overpasses (SNOs) Predictions

Prediction of SNOs between AQUA and NOAA-19 Satellite Orbit:

Table of predicted SNOs for the next 14.0 days since TLE Epoch: 10/30/2015
Index Date (AQUA) Time (AQUA) Lat,Lon (AQUA) SZA (AQUA ) Date (NOAA-19) Time (NOAA-19) Lat,Lon (NOAA-19) SZA (NOAA-19 ) Distance(km) Time Diff (sec)
1 10/30/2015 13:36:01 -80.56, 120.23 84.34 10/30/2015 13:34:54 -80.56, 120.07 84.30 2.83 67
2 10/30/2015 14:25:26 80.49, -71.46 95.56 10/30/2015 14:25:57 80.50, -71.61 95.57 2.82 31
3 11/01/2015 19:09:45 80.54,-142.97 96.34 11/01/2015 19:09:13 80.54,-143.05 96.36 1.47 32
4 11/01/2015 19:59:09 -80.47, 25.33 83.76 11/01/2015 20:00:06 -80.47, 25.42 83.79 1.85 57
5 11/04/2015 00:43:28 -80.52, -46.26 82.99 11/04/2015 00:43:23 -80.52, -46.27 82.98 0.18 5
6 11/06/2015 05:27:46 -80.55,-117.63 82.27 11/06/2015 05:26:39 -80.56,-117.67 82.23 1.11 67
7 11/06/2015 06:17:12 80.52, 50.29 97.70 11/06/2015 06:17:42 80.52, 50.24 97.69 1.07 30
8 11/08/2015 11:01:30 80.56, -21.21 98.42 11/08/2015 11:00:58 80.57, -21.38 98.45 3.21 32
9 11/08/2015 11:50:54 -80.50, 147.16 81.69 11/08/2015 11:51:52 -80.49, 147.21 81.72 1.06 58
10 11/10/2015 16:35:12 -80.54, 75.59 80.98 11/10/2015 16:35:08 -80.53, 75.73 81.00 2.82 4
11 11/12/2015 21:19:29 -80.57, 4.23 80.33 11/12/2015 21:18:24 -80.57, 4.19 80.30 0.85 65




NCC Satellite Simultaneous Nadir Overpasses (SNOs) Prediction Service
